EW5021 Weather Reports


Display with metric or nautical units.
time (UTC)temp
F
wind
direction
speed
MPH
gust
MPH
rain 1hr
in
rain 24hr
in
rain mn
in
humidity
%
barometer
mb
20260504192001 83 57 5.0 11.0 0.00 0.00 0.00 48 1014.4
20260504185002 85 95 3.0 11.0 0.00 0.00 0.00 47 1014.7
20260504182000 84 63 4.0 12.0 0.00 0.00 0.00 46 1015.6
20260504175000 84 92 4.0 10.0 0.00 0.00 0.00 47 1015.8
20260504172000 82 144 5.0 13.0 0.00 0.00 0.00 47 1016.1
20260504081952 67 46 2.0 6.0 0.00 0.00 0.00 83 1015.3
20260504044950 69 51 2.0 6.0 0.00 0.00 0.00 82 1016.6
20260504041950 69 58 0.0 2.0 0.00 0.00 0.00 82 1017.0
20260504034951 70 62 1.0 5.0 0.00 0.00 0.00 80 1017.3
20260504031954 72 82 2.0 8.0 0.00 0.00 0.00 76 1016.7
20260504031949 70 101 0.0 6.0 0.00 0.00 0.00 79 1017.0
20260504024948 71 70 1.0 6.0 0.00 0.00 0.00 78 1017.0
20260504014945 72 132 2.0 6.0 0.00 0.00 0.00 76 1016.4
20260504011944 73 121 2.0 5.0 0.00 0.00 0.00 76 1016.1
20260504004945 74 92 0.0 4.0 0.00 0.00 0.00 74 1015.7
20260504001943 75 126 1.0 6.0 0.00 0.00 0.00 71 1015.4
20260503234943 76 114 2.0 7.0 0.00 0.00 0.00 67 1015.2
20260503231949 78 96 2.0 8.0 0.00 0.00 0.00 64 1015.0
20260503231944 78 116 2.0 9.0 0.00 0.00 0.00 65 1015.0
20260503221941 79 126 2.0 7.0 0.00 0.00 0.00 62 1014.9
20260503214941 79 92 2.0 8.0 0.00 0.00 0.00 62 1014.9
20260503211942 80 99 3.0 9.0 0.00 0.00 0.00 58 1014.9
20260503204946 78 139 3.0 12.0 0.00 0.00 0.00 62 1015.4
20260503204941 80 79 1.0 10.0 0.00 0.00 0.00 60 1015.0
20260503194940 79 94 4.0 10.0 0.00 0.00 0.00 62 1015.6